570  
ASUS43 KGLD 270608  
RWRGLD  
 
GOODLAND FORECAST AREA HOURLY WEATHER ROUNDUP  
NATIONAL WEATHER SERVICE GOODLAND KS  
1200 AM MDT THU APR 27 2017  
   
..OFFICIAL OBSERVATIONS
 
 
 
CITY SKY/WX TMP DP RH WIND PRES REMARKS
 
GOODLAND KS CLOUDY 45 30 55 W7 29.73R  
HILL CITY KS CLEAR 34 30 85 CALM 29.76R  
IMPERIAL NEB CLOUDY 39 31 72 SE3 29.72F  
MCCOOK NEB CLOUDY 35 27 72 CALM 29.74R  
AKRON CO LGT RAIN 42 37 82 N8 29.72S  
BURLINGTON CO NOT AVBL  
LIMON CO CLEAR 37 34 89 SE6 29.72F  

 
   
..UNOFFICIAL OBSERVATIONS
 
 
 
CITY SKY/WX TMP DP RH WIND PRES REMARKS
 
LENORA KS N/A 36 32 85 MISG N/A  
NORTON KS CLEAR 34 27 75 CALM 29.75R  
SHARON SPRINGS N/A 37 31 78 S9 N/A  
TRENTON NEB N/A 39 32 76 CALM N/A  
KIT CARSON CO N/A 43 36 75 CALM N/A  

 
 
 
CLICK HERE TO GO TO PREVIOUS BULLETINS.

The Nexlab KS Page
The Nexlab CO Page
The Nexlab NE Page Main Text Page